Tracking 19219 objects as of 19-Jul-2018
HD Live streaming from Space Station
objects crossing your sky now

FENGYUN 1C DEB

Track FENGYUN 1C DEB now!
10-day predictions


NORAD ID: 30356
Int'l Code: 1999-025ABT
Perigee: 833.7 km
Apogee: 916.4 km
Inclination: 98.9 °
Period: 102.3 minutes
Semi major axis: 7246 km
RCS: 0.038 m2 (small)
Launch date: May 10, 1999
Source: People's Republic of China (PRC)
Launch site: Taiyaun Space Center, China (TSC)

Note: This is SATELLITE DEBRIS
aabbcc
Your satellite tracking list
Your tracking list is empty




NASA's NSSDC Master Catalog

Two Line Element Set (TLE):
1 30356U 99025ABT 18199.74288597  .00000001  00000-0  25950-4 0  9996
2 30356  98.8537 242.8274 0057099  18.0358 102.2185 14.07501236589463
Source of the keplerian elements: AFSPC